CW7748 Weather Reports


Display with metric or nautical units.
time (UTC)temp
F
wind
direction
speed
MPH
gust
MPH
rain 1hr
in
rain 24hr
in
rain mn
in
humidity
%
barometer
mb
20190120144621 56 316 4.0 10.0 0.00 0.92 0.65 81 1010.9
20190120144120 55 316 4.0 10.0 0.00 0.92 0.65 79 1010.8
20190120143626 55 257 3.0 10.0 0.00 0.92 0.65 81 1010.7
20190120143031 55 296 5.0 7.0 0.00 0.92 0.65 80 1010.6
20190120142531 55 235 3.0 12.0 0.00 0.92 0.65 82 1010.5
20190120142124 53 321 5.0 12.0 0.00 0.92 0.65 81 1010.5
20190120141606 53 0 3.0 10.0 0.00 0.92 0.65 81 1010.2
20190120141108 53 309 4.0 10.0 0.00 0.92 0.65 81 1010.1
20190120140606 53 252 4.0 14.0 0.00 0.92 0.65 81 1010.0
20190120140112 54 312 3.0 14.0 0.00 0.92 0.65 81 1009.7
20190120135602 54 306 5.0 14.0 0.00 0.92 0.65 83 1009.8
20190120135125 54 288 3.0 11.0 0.00 0.92 0.65 83 1009.6
20190120134622 54 324 6.0 9.0 0.00 0.92 0.65 84 1009.5
20190120134104 54 316 2.0 9.0 0.00 0.92 0.65 85 1009.5
20190120133614 54 269 3.0 9.0 0.00 0.92 0.65 85 1009.5
20190120133104 54 300 3.0 13.0 0.00 0.92 0.65 85 1009.4
20190120132611 54 42 4.0 13.0 0.00 0.92 0.65 84 1009.2
20190120132102 55 298 3.0 9.0 0.00 0.92 0.65 84 1009.1
20190120131559 55 288 4.0 10.0 0.00 0.92 0.65 84 1009.1
20190120131021 55 330 4.0 11.0 0.00 0.92 0.65 84 1008.9
20190120130521 55 20 4.0 11.0 0.00 0.92 0.65 83 1008.9
20190120130023 55 282 4.0 10.0 0.00 0.92 0.65 84 1008.7
20190120125622 55 336 6.0 10.0 0.00 0.92 0.65 84 1008.7
20190120125023 56 258 2.0 9.0 0.00 0.92 0.65 85 1008.6
20190120124621 56 228 3.0 9.0 0.00 0.92 0.65 87 1008.4
20190120124059 56 303 2.0 7.0 0.00 0.92 0.65 87 1008.4
20190120123557 56 202 4.0 7.0 0.00 0.92 0.65 87 1008.2
20190120123058 56 18 0.0 11.0 0.00 0.92 0.65 86 1007.8
20190120122600 56 219 3.0 11.0 0.00 0.92 0.65 87 1007.8
20190120122048 57 296 3.0 9.0 0.00 0.92 0.65 87 1007.9
20190120121559 57 168 1.0 9.0 0.00 0.92 0.65 87 1007.8
20190120121059 57 293 3.0 6.0 0.00 0.92 0.65 88 1007.8
20190120120603 57 226 2.0 10.0 0.00 0.92 0.65 88 1007.8
20190120120104 57 241 4.0 10.0 0.00 0.92 0.65 88 1007.6
20190120115610 57 219 1.0 7.0 0.00 0.92 0.65 90 1007.6
20190120115106 58 182 1.0 7.0 0.00 0.92 0.65 90 1007.4
20190120114603 58 312 2.0 7.0 0.00 0.92 0.65 90 1007.4
20190120114059 58 255 2.0 10.0 0.00 0.92 0.65 90 1007.3
20190120113551 58 259 2.0 10.0 0.00 0.92 0.65 91 1007.1
20190120113053 58 344 3.0 9.0 0.00 0.92 0.65 91 1007.0
20190120112559 58 274 2.0 9.0 0.00 0.92 0.65 92 1006.8
20190120112107 58 173 1.0 6.0 0.00 0.92 0.65 92 1006.8
20190120111610 57 179 2.0 5.0 0.00 0.92 0.65 92 1006.7
20190120111113 57 157 2.0 7.0 0.00 0.92 0.65 93 1006.7
20190120110619 57 331 2.0 7.0 0.00 0.92 0.65 93 1006.6
20190120110102 57 217 1.0 7.0 0.00 0.92 0.65 93 1006.5
20190120105549 57 192 1.0 7.0 0.00 0.92 0.65 93 1006.4
20190120105038 58 0 1.0 7.0 0.00 0.92 0.65 93 1006.3
20190120104524 58 172 1.0 6.0 0.00 0.92 0.65 93 1006.3
20190120104030 58 224 3.0 10.0 0.00 0.92 0.65 94 1006.2
20190120103527 58 226 3.0 10.0 0.00 0.92 0.65 94 1006.2
20190120103038 58 230 2.0 7.0 0.00 0.92 0.65 94 1006.1
20190120102528 58 204 2.0 6.0 0.00 0.92 0.65 94 1006.2
20190120102024 58 217 3.0 5.0 0.00 0.92 0.65 94 1006.1
20190120101619 58 210 2.0 5.0 0.00 0.92 0.65 94 1006.1
20190120101028 58 204 2.0 5.0 0.00 0.92 0.65 95 1006.0
20190120100623 58 199 1.0 6.0 0.00 0.92 0.65 94 1005.8
20190120100119 58 189 2.0 6.0 0.00 0.92 0.65 94 1006.0
20190120095521 58 234 2.0 6.0 0.00 0.92 0.65 95 1006.0
20190120095029 58 207 3.0 6.0 0.00 0.92 0.65 95 1006.0
20190120094527 58 238 2.0 5.0 0.00 0.92 0.65 95 1005.9
20190120094023 59 214 2.0 7.0 0.00 0.92 0.65 95 1006.0
20190120093518 59 212 3.0 7.0 0.00 0.92 0.65 95 1006.0
20190120093020 59 204 4.0 9.0 0.00 0.92 0.65 95 1006.1
20190120092619 59 179 3.0 9.0 0.00 0.92 0.65 95 1006.1
20190120092106 59 219 2.0 4.0 0.00 0.92 0.65 95 1006.1
20190120091600 59 254 1.0 7.0 0.00 0.92 0.65 95 1005.9
20190120091105 59 237 2.0 10.0 0.00 0.92 0.65 95 1006.1
20190120090612 59 214 4.0 10.0 0.00 0.92 0.65 96 1006.1
20190120090101 59 244 3.0 6.0 0.00 0.92 0.65 95 1005.8
20190120085608 59 183 2.0 5.0 0.00 0.92 0.65 95 1005.7
20190120085103 59 223 1.0 4.0 0.00 0.92 0.65 95 1005.8
20190120084537 59 202 1.0 3.0 0.00 0.92 0.65 95 1005.8
20190120084021 59 233 0.0 7.0 0.00 0.92 0.65 95 1005.6
20190120083625 59 210 2.0 7.0 0.01 0.92 0.65 95 1005.8
20190120083020 59 202 2.0 5.0 0.01 0.92 0.65 95 1005.6
20190120082616 59 233 2.0 6.0 0.01 0.92 0.65 95 1005.6
20190120082058 59 248 2.0 7.0 0.01 0.92 0.65 95 1005.5
20190120081600 59 219 2.0 7.0 0.01 0.92 0.65 95 1005.6
20190120081100 59 230 2.0 5.0 0.01 0.92 0.65 95 1005.7
20190120080541 59 216 1.0 5.0 0.01 0.92 0.65 95 1005.7
20190120080034 59 214 1.0 5.0 0.01 0.92 0.65 95 1005.6
20190120075522 59 196 1.0 3.0 0.01 0.92 0.65 95 1005.6
20190120075023 59 240 2.0 5.0 0.01 0.92 0.65 95 1005.6
20190120074526 59 199 2.0 6.0 0.01 0.92 0.65 94 1005.6
20190120074032 59 227 3.0 6.0 0.01 0.92 0.65 95 1005.8
20190120073517 59 178 2.0 6.0 0.00 0.91 0.65 94 1005.8
20190120073017 59 0 2.0 6.0 0.00 0.91 0.64 94 1005.9
20190120072601 59 209 0.0 9.0 0.08 0.91 0.64 94 1005.8
20190120072021 59 224 3.0 11.0 0.18 0.91 0.64 95 1005.7
20190120071519 59 344 2.0 11.0 0.46 0.91 0.64 95 1005.7
20190120071017 59 202 2.0 7.0 0.58 0.91 0.64 95 1005.6
20190120070518 59 180 2.0 7.0 0.59 0.91 0.64 95 1005.5
20190120070022 59 296 1.0 5.0 0.60 0.91 0.64 95 1005.5
20190120065621 59 223 2.0 9.0 0.61 0.91 0.64 95 1005.5
20190120065117 59 173 2.0 9.0 0.63 0.91 0.64 95 1005.7
20190120064612 59 221 2.0 7.0 0.64 0.91 0.64 95 1005.7
20190120064110 59 307 3.0 12.0 0.64 0.91 0.64 95 1005.6
20190120063600 59 85 2.0 12.0 0.64 0.91 0.64 94 1005.5
20190120063051 59 281 4.0 15.0 0.64 0.91 0.64 93 1005.3
20190120062555 60 244 6.0 15.0 0.56 0.83 0.56 92 1005.5
20190120062039 61 4 5.0 22.0 0.46 0.73 0.48 91 1005.5
20190120061527 64 265 4.0 22.0 0.18 0.45 0.22 90 1005.9
20190120061025 67 274 3.0 13.0 0.06 0.33 0.06 94 1005.4
20190120060531 67 288 3.0 18.0 0.05 0.32 0.05 94 1004.2
20190120060021 67 192 9.0 18.0 0.04 0.31 0.04 94 1004.2
20190120055527 67 165 6.0 18.0 0.03 0.30 0.03 93 1004.0
20190120055017 67 113 8.0 18.0 0.01 0.28 0.02 93 1004.1
20190120054518 67 223 8.0 19.0 0.00 0.27 0.00 93 1004.2
20190120054116 67 164 6.0 19.0 0.00 0.27 0.00 92 1004.1
20190120053558 67 180 10.0 20.0 0.00 0.27 0.00 93 1004.4
20190120053038 67 149 8.0 20.0 0.00 0.27 0.00 93 1004.3
20190120052542 67 151 7.0 18.0 0.00 0.27 0.00 93 1004.4
20190120052042 67 189 6.0 18.0 0.00 0.27 0.00 93 1004.9
20190120051535 67 234 6.0 16.0 0.00 0.27 0.00 94 1005.0
20190120051041 67 137 6.0 16.0 0.00 0.27 0.00 94 1005.1
20190120050542 67 204 8.0 17.0 0.00 0.27 0.00 94 1005.3
20190120050051 67 200 9.0 22.0 0.00 0.27 0.00 94 1005.2
20190120045543 66 204 12.0 22.0 0.00 0.27 0.27 94 1005.3
20190120045025 66 195 6.0 16.0 0.00 0.27 0.27 95 1005.5
20190120044523 66 199 6.0 16.0 0.00 0.27 0.27 95 1005.6
20190120044029 65 219 7.0 16.0 0.00 0.27 0.27 95 1005.8
20190120043533 65 192 6.0 15.0 0.00 0.27 0.27 95 1005.8
20190120043019 65 161 7.0 15.0 0.00 0.27 0.27 95 1005.8
20190120042520 65 195 5.0 12.0 0.00 0.27 0.27 95 1005.9
20190120042016 64 213 6.0 15.0 0.00 0.27 0.27 95 1006.2
20190120041509 64 130 6.0 15.0 0.00 0.27 0.27 95 1006.3
20190120041014 64 185 5.0 15.0 0.00 0.27 0.27 95 1006.5
20190120040514 64 118 7.0 15.0 0.00 0.27 0.27 95 1006.7
20190120040120 63 121 3.0 12.0 0.01 0.27 0.27 95 1006.8
20190120035509 63 185 4.0 12.0 0.02 0.27 0.27 95 1006.8
20190120035116 63 154 4.0 11.0 0.04 0.27 0.27 95 1006.9
20190120034515 63 130 5.0 11.0 0.05 0.27 0.27 95 1006.8
20190120034103 63 121 3.0 5.0 0.06 0.27 0.27 95 1006.9
20190120033508 63 182 3.0 6.0 0.08 0.27 0.27 94 1006.9
20190120033010 63 192 2.0 7.0 0.08 0.27 0.27 94 1006.8
20190120032516 63 154 4.0 10.0 0.09 0.27 0.27 94 1006.8
20190120032011 63 179 3.0 12.0 0.10 0.27 0.27 94 1006.9
20190120031606 63 109 4.0 12.0 0.11 0.27 0.27 94 1006.8
20190120031109 64 182 4.0 12.0 0.11 0.27 0.27 94 1006.9
20190120030612 64 168 4.0 16.0 0.13 0.27 0.27 94 1006.8
20190120030012 64 159 6.0 17.0 0.13 0.26 0.26 94 1007.2
20190120025619 64 169 6.0 17.0 0.13 0.25 0.25 94 1007.4
20190120025011 64 257 8.0 21.0 0.13 0.23 0.23 94 1007.6
20190120024614 65 130 8.0 21.0 0.13 0.22 0.22 94 1007.8
20190120024031 65 180 6.0 17.0 0.14 0.21 0.21 94 1008.0
20190120023537 65 190 7.0 17.0 0.14 0.19 0.20 94 1007.9
20190120023032 65 230 7.0 18.0 0.16 0.19 0.19 94 1007.9
20190120022535 65 168 9.0 18.0 0.16 0.18 0.18 94 1007.8
20190120022036 65 134 6.0 17.0 0.16 0.17 0.17 94 1007.7
20190120021537 65 137 8.0 16.0 0.16 0.16 0.16 94 1007.7
20190120021018 65 224 6.0 15.0 0.16 0.16 0.16 93 1008.0
20190120020522 65 197 6.0 19.0 0.14 0.14 0.15 93 1008.2
20190120020016 65 195 9.0 19.0 0.13 0.13 0.13 93 1008.3
20190120015521 65 221 9.0 20.0 0.12 0.12 0.12 92 1008.2
20190120015023 65 209 10.0 20.0 0.10 0.10 0.10 92 1008.3
20190120014515 65 207 9.0 18.0 0.09 0.09 0.09 92 1008.2
20190120014106 65 149 9.0 18.0 0.07 0.07 0.07 91 1008.1
20190120013556 65 158 8.0 16.0 0.05 0.05 0.05 90 1008.2
20190120013039 66 237 7.0 17.0 0.03 0.03 0.03 88 1008.1
20190120012535 66 148 7.0 20.0 0.02 0.02 0.02 86 1008.2
20190120012038 67 190 6.0 20.0 0.01 0.01 0.01 84 1008.2
20190120011532 67 206 7.0 17.0 0.00 0.00 0.00 82 1008.2
20190120011038 68 238 6.0 16.0 0.00 0.00 0.00 81 1008.3
20190120010519 68 192 6.0 17.0 0.00 0.00 0.00 80 1008.1
20190120010013 69 135 8.0 19.0 0.00 0.00 0.00 78 1008.0
20190120005514 69 234 7.0 19.0 0.00 0.00 0.00 76 1008.3
20190120005016 69 166 7.0 15.0 0.00 0.00 0.00 74 1008.6
20190120004513 70 147 5.0 16.0 0.00 0.00 0.00 73 1008.4
20190120004052 70 204 8.0 18.0 0.00 0.00 0.00 73 1008.4
20190120003533 70 196 5.0 18.0 0.00 0.00 0.00 72 1008.6
20190120003030 70 240 5.0 19.0 0.00 0.00 0.00 71 1008.6
20190120002522 70 155 6.0 19.0 0.00 0.00 0.00 71 1008.6
20190120002012 70 161 9.0 17.0 0.00 0.00 0.00 70 1008.6
20190120001517 70 202 8.0 21.0 0.00 0.00 0.00 70 1008.5
20190120001020 70 179 9.0 22.0 0.00 0.00 0.00 70 1008.5
20190120000530 70 213 10.0 22.0 0.00 0.00 0.00 70 1008.6
20190120000027 70 148 7.0 15.0 0.00 0.00 0.00 70 1008.6
20190119235605 70 164 5.0 16.0 0.00 0.00 0.00 70 1008.4
20190119235101 70 100 6.0 16.0 0.00 0.00 0.00 70 1008.5
20190119234558 70 123 6.0 15.0 0.00 0.00 0.00 71 1008.8
20190119234047 70 176 6.0 12.0 0.00 0.00 0.00 71 1008.7
20190119233525 70 204 6.0 13.0 0.00 0.00 0.00 71 1009.0
20190119233019 70 213 7.0 13.0 0.00 0.00 0.00 71 1009.2
20190119232520 71 166 5.0 12.0 0.00 0.00 0.00 70 1009.1
20190119232020 71 176 7.0 17.0 0.00 0.00 0.00 70 1009.2
20190119231520 71 206 9.0 17.0 0.00 0.00 0.00 69 1009.2
20190119231019 71 192 7.0 17.0 0.00 0.00 0.00 68 1009.2
20190119230517 71 166 9.0 19.0 0.00 0.00 0.00 68 1009.4
20190119230022 71 193 8.0 19.0 0.00 0.00 0.00 68 1009.4
20190119225513 71 207 5.0 14.0 0.00 0.00 0.00 68 1009.5
20190119225020 71 212 4.0 13.0 0.00 0.00 0.00 68 1009.5
20190119224521 71 169 4.0 14.0 0.00 0.00 0.00 68 1009.5
20190119224017 71 155 8.0 16.0 0.00 0.00 0.00 68 1009.6
20190119223518 71 180 7.0 16.0 0.00 0.00 0.00 69 1009.7
20190119223019 71 169 5.0 15.0 0.00 0.00 0.00 69 1009.6
20190119222518 71 220 6.0 17.0 0.00 0.00 0.00 68 1009.7
20190119222012 71 248 6.0 17.0 0.00 0.00 0.00 68 1009.9
20190119221508 72 204 5.0 20.0 0.00 0.00 0.00 67 1010.0
20190119221104 72 209 10.0 20.0 0.00 0.00 0.00 66 1010.0
20190119220605 72 162 6.0 18.0 0.00 0.00 0.00 66 1010.0
20190119220043 72 171 7.0 18.0 0.00 0.00 0.00 65 1009.8
20190119215513 72 185 5.0 17.0 0.00 0.00 0.00 65 1010.0
20190119215006 72 241 4.0 17.0 0.00 0.00 0.00 63 1010.1
20190119214514 72 189 7.0 15.0 0.00 0.00 0.00 63 1010.3
20190119214051 72 219 6.0 15.0 0.00 0.00 0.00 62 1010.2
20190119213538 72 282 7.0 18.0 0.00 0.00 0.00 62 1010.2
20190119213039 72 130 8.0 18.0 0.00 0.00 0.00 62 1010.3
20190119212520 72 202 5.0 19.0 0.00 0.00 0.00 62 1010.3
20190119211958 72 192 9.0 19.0 0.00 0.00 0.00 62 1010.5
20190119211455 72 165 7.0 14.0 0.00 0.00 0.00 62 1010.6
20190119211059 73 262 6.0 20.0 0.00 0.00 0.00 63 1010.7
20190119210504 73 168 9.0 20.0 0.00 0.00 0.00 62 1010.7
20190119210010 73 134 9.0 17.0 0.00 0.00 0.00 63 1010.6
20190119205601 73 199 9.0 21.0 0.00 0.00 0.00 63 1010.7
20190119205104 73 176 8.0 21.0 0.00 0.00 0.00 64 1010.9
20190119204500 73 220 10.0 20.0 0.00 0.00 0.00 63 1010.8
20190119204103 73 168 9.0 17.0 0.00 0.00 0.00 63 1010.8
20190119203657 74 154 6.0 19.0 0.00 0.00 0.00 63 1011.2
20190119203030 74 165 4.0 19.0 0.00 0.00 0.00 63 1011.2
20190119202624 74 268 6.0 19.0 0.00 0.00 0.00 62 1011.2
20190119202001 74 176 6.0 16.0 0.00 0.00 0.00 61 1011.3
20190119201602 75 159 7.0 16.0 0.00 0.00 0.00 59 1011.2
20190119200959 75 207 8.0 15.0 0.00 0.00 0.00 58 1011.4
20190119200459 75 221 9.0 15.0 0.00 0.00 0.00 56 1011.3
20190119200000 75 176 7.0 16.0 0.00 0.00 0.00 55 1011.4
20190119195507 76 230 7.0 17.0 0.00 0.00 0.00 54 1011.5
20190119195008 76 227 7.0 20.0 0.00 0.00 0.00 54 1011.6
20190119194503 76 138 9.0 20.0 0.00 0.00 0.00 53 1011.7
20190119194008 76 142 7.0 15.0 0.00 0.00 0.00 53 1011.7
20190119193518 76 137 7.0 14.0 0.00 0.00 0.00 53 1011.8
20190119193021 76 202 6.0 19.0 0.00 0.00 0.00 53 1011.9
20190119192523 76 247 9.0 19.0 0.00 0.00 0.00 52 1011.9
20190119192014 75 142 5.0 19.0 0.00 0.00 0.00 54 1012.0
20190119191606 74 175 10.0 16.0 0.00 0.00 0.00 54 1012.1
20190119191006 74 217 9.0 15.0 0.00 0.00 0.00 53 1012.3
20190119190454 75 178 4.0 19.0 0.00 0.00 0.00 52 1012.3
20190119190010 75 233 10.0 21.0 0.00 0.00 0.00 51 1012.2
20190119185503 75 193 10.0 21.0 0.00 0.00 0.00 51 1012.3
20190119185008 75 196 6.0 16.0 0.00 0.00 0.00 52 1012.3
20190119184514 75 212 8.0 22.0 0.00 0.00 0.00 50 1012.5
20190119184017 75 133 9.0 22.0 0.00 0.00 0.00 49 1012.7
20190119183514 76 206 10.0 19.0 0.00 0.00 0.00 48 1012.7
20190119183021 76 237 9.0 21.0 0.00 0.00 0.00 49 1013.0
20190119182518 76 188 11.0 21.0 0.00 0.00 0.00 50 1013.0
20190119182005 76 93 11.0 19.0 0.00 0.00 0.00 50 1013.3
20190119181504 76 243 8.0 20.0 0.00 0.00 0.00 51 1013.3
20190119180959 76 200 10.0 20.0 0.00 0.00 0.00 50 1013.4
20190119180508 75 240 7.0 20.0 0.00 0.00 0.00 50 1013.5
20190119180009 76 245 11.0 20.0 0.00 0.00 0.00 51 1013.5
20190119175505 76 192 8.0 17.0 0.00 0.00 0.00 52 1013.7
20190119175102 75 200 9.0 17.0 0.00 0.00 0.00 52 1013.8
20190119174537 75 185 7.0 20.0 0.00 0.00 0.00 53 1014.0
20190119174102 75 226 11.0 20.0 0.00 0.00 0.00 52 1014.1
20190119173559 76 157 4.0 18.0 0.00 0.00 0.00 54 1014.2
20190119173043 75 207 9.0 17.0 0.00 0.00 0.00 53 1014.1
20190119172532 75 130 6.0 16.0 0.00 0.00 0.00 53 1014.0
20190119172037 74 180 6.0 17.0 0.00 0.00 0.00 53 1014.2
20190119171535 75 189 10.0 18.0 0.00 0.00 0.00 51 1014.2
20190119171039 74 204 6.0 19.0 0.00 0.00 0.00 52 1014.2
20190119170637 74 79 9.0 23.0 0.00 0.00 0.00 52 1014.3
20190119170027 74 195 12.0 23.0 0.00 0.00 0.00 50 1014.1
20190119165637 74 183 6.0 14.0 0.00 0.00 0.00 51 1014.4
20190119165033 74 118 6.0 16.0 0.00 0.00 0.00 51 1014.4
20190119164638 73 217 6.0 16.0 0.00 0.00 0.00 51 1014.4
20190119164024 74 155 5.0 20.0 0.00 0.00 0.00 52 1014.6
20190119163524 73 199 5.0 20.0 0.00 0.00 0.00 52 1014.6
20190119163017 74 137 5.0 12.0 0.00 0.00 0.00 53 1014.8
20190119162509 74 161 5.0 11.0 0.00 0.00 0.00 55 1015.0
20190119162101 73 178 5.0 10.0 0.00 0.00 0.00 55 1015.1
20190119161554 72 118 4.0 11.0 0.00 0.00 0.00 54 1015.2
20190119161041 72 106 6.0 14.0 0.00 0.00 0.00 54 1015.2
20190119160537 72 203 4.0 14.0 0.00 0.00 0.00 56 1015.1
20190119160022 71 118 4.0 13.0 0.00 0.00 0.00 55 1015.2
20190119155530 71 182 5.0 13.0 0.00 0.00 0.00 55 1015.3
20190119155033 71 152 5.0 13.0 0.00 0.00 0.00 56 1015.4
20190119154513 70 166 6.0 13.0 0.00 0.00 0.00 57 1015.4
20190119154017 70 173 6.0 13.0 0.00 0.00 0.00 57 1015.5
20190119153508 69 169 3.0 11.0 0.00 0.00 0.00 61 1015.5
20190119153012 68 157 2.0 10.0 0.00 0.00 0.00 61 1015.5
20190119152526 67 80 4.0 10.0 0.00 0.00 0.00 63 1015.5
20190119152105 67 141 4.0 10.0 0.00 0.00 0.00 64 1015.5
20190119151455 67 128 4.0 7.0 0.00 0.00 0.00 64 1015.4
20190119151101 66 178 3.0 7.0 0.00 0.00 0.00 67 1015.5
20190119150558 65 145 4.0 7.0 0.00 0.00 0.00 68 1015.4
20190119145953 65 121 4.0 7.0 0.00 0.00 0.00 69 1015.3
20190119145558 65 221 3.0 6.0 0.00 0.00 0.00 70 1015.4
20190119144954 65 186 4.0 10.0 0.00 0.00 0.00 69 1015.5